TimePDT,TemperatureF,Dew PointF,Humidity,Sea Level PressureIn,VisibilityMPH,Wind Direction,Wind SpeedMPH,Gust SpeedMPH,PrecipitationIn,Events,Conditions,WindDirDegrees,DateUTC
12:53 AM,57.0,48.0,72,30.15,10.0,SW,3.5,-,N/A,,Partly Cloudy,220,2013-07-13 07:53:00
1:53 AM,55.9,48.9,77,30.15,10.0,Calm,Calm,-,N/A,,Clear,0,2013-07-13 08:53:00
2:53 AM,54.0,48.9,83,30.17,10.0,South,3.5,-,N/A,,Clear,170,2013-07-13 09:53:00
3:53 AM,54.0,48.0,80,30.19,10.0,Calm,Calm,-,N/A,,Partly Cloudy,0,2013-07-13 10:53:00
4:53 AM,53.1,46.9,80,30.19,10.0,Calm,Calm,-,N/A,,Partly Cloudy,0,2013-07-13 11:53:00
5:53 AM,53.1,46.9,80,30.20,10.0,SSE,4.6,-,N/A,,Partly Cloudy,150,2013-07-13 12:53:00
6:53 AM,54.0,48.0,80,30.21,10.0,South,4.6,-,N/A,,Clear,170,2013-07-13 13:53:00
7:53 AM,57.0,48.9,74,30.22,10.0,SSW,3.5,-,N/A,,Partly Cloudy,200,2013-07-13 14:53:00
8:53 AM,60.1,48.9,67,30.23,10.0,Calm,Calm,-,N/A,,Partly Cloudy,0,2013-07-13 15:53:00
9:53 AM,63.0,50.0,63,30.24,10.0,West,4.6,-,N/A,,Partly Cloudy,270,2013-07-13 16:53:00
10:53 AM,64.9,48.9,56,30.23,10.0,WNW,5.8,-,N/A,,Partly Cloudy,300,2013-07-13 17:53:00
11:53 AM,66.9,48.9,52,30.22,10.0,WNW,10.4,-,N/A,,Partly Cloudy,290,2013-07-13 18:53:00
12:53 PM,70.0,48.9,47,30.21,10.0,WNW,9.2,-,N/A,,Partly Cloudy,300,2013-07-13 19:53:00
1:53 PM,73.0,48.9,42,30.20,10.0,WNW,9.2,-,N/A,,Partly Cloudy,290,2013-07-13 20:53:00
2:53 PM,77.0,44.1,31,30.19,10.0,North,12.7,19.6,N/A,,Clear,350,2013-07-13 21:53:00
3:53 PM,77.0,44.1,31,30.17,10.0,North,6.9,-,N/A,,Clear,10,2013-07-13 22:53:00
4:53 PM,77.0,44.1,31,30.16,10.0,NNW,11.5,-,N/A,,Partly Cloudy,340,2013-07-13 23:53:00
5:53 PM,78.1,42.1,28,30.15,10.0,NNW,10.4,-,N/A,,Partly Cloudy,330,2013-07-14 00:53:00
6:53 PM,75.9,43.0,31,30.15,10.0,NNW,9.2,-,N/A,,Clear,330,2013-07-14 01:53:00
7:53 PM,73.0,44.1,35,30.15,10.0,North,12.7,-,N/A,,Clear,360,2013-07-14 02:53:00
8:53 PM,69.1,46.9,45,30.15,10.0,North,10.4,-,N/A,,Clear,360,2013-07-14 03:53:00
9:53 PM,66.0,46.9,50,30.16,10.0,North,6.9,-,N/A,,Clear,10,2013-07-14 04:53:00
10:53 PM,66.0,46.9,50,30.15,10.0,North,11.5,-,N/A,,Clear,10,2013-07-14 05:53:00
11:53 PM,64.9,48.9,56,30.15,10.0,NE,9.2,-,N/A,,Clear,40,2013-07-14 06:53:00